DW5805 Weather Reports


time (UTC)temp
C
wind
direction
speed
KPH
gust
KPH
rain 1hr
cm
rain 24hr
cm
rain mn
cm
humidity
%
barometer
mb
20260505230608 23 293 4.8 16.1 0.00 0.71 0.00 27 1010.8
20260505230107 23 293 6.4 16.1 0.00 0.71 0.00 30 1010.8
20260505225607 23 300 4.8 16.1 0.00 0.71 0.00 28 1010.9
20260505225106 23 302 3.2 8.0 0.00 0.71 0.00 29 1010.9
20260505224606 23 300 3.2 12.9 0.00 0.71 0.00 30 1010.9
20260505224330 23 300 3.2 12.9 0.00 0.71 0.00 29 1010.9
20260505224051 23 300 3.2 16.1 0.00 0.71 0.00 30 1011.0
20260505223108 23 299 4.8 16.1 0.00 0.71 0.00 28 1011.1
20260505222607 22 292 4.8 16.1 0.00 0.71 0.00 30 1011.1
20260505222107 22 291 3.2 16.1 0.00 0.71 0.00 31 1011.4
20260505221606 22 290 1.6 6.4 0.00 0.71 0.00 32 1011.4
20260505221335 22 290 1.6 8.0 0.00 0.71 0.00 32 1011.5
20260505220822 22 290 3.2 11.3 0.00 0.71 0.00 32 1011.5
20260505220552 22 290 3.2 11.3 0.00 0.71 0.00 33 1011.6
20260505215606 22 290 3.2 8.0 0.00 0.71 0.00 32 1011.6
20260505215334 22 292 3.2 6.4 0.00 0.71 0.00 32 1011.6
20260505214826 22 292 3.2 11.3 0.00 0.71 0.00 34 1011.8
20260505214105 21 293 3.2 12.9 0.00 0.71 0.00 34 1011.8
20260505213603 22 292 3.2 12.9 0.00 0.71 0.00 38 1011.8
20260505213323 22 292 1.6 8.0 0.00 0.71 0.00 35 1011.9
20260505212603 21 292 3.2 11.3 0.00 0.71 0.00 36 1011.9
20260505212104 21 292 3.2 11.3 0.00 0.71 0.00 37 1012.1
20260505211601 21 292 4.8 12.9 0.00 0.71 0.00 37 1012.1
20260505211101 21 294 3.2 12.9 0.00 0.71 0.00 39 1012.1
20260505210558 21 296 1.6 11.3 0.00 0.71 0.00 40 1012.1
20260505210058 21 288 3.2 12.9 0.00 0.71 0.00 40 1012.2
20260505205555 21 288 3.2 12.9 0.00 0.71 0.00 42 1012.2
20260505205052 20 285 3.2 11.3 0.00 0.71 0.00 41 1012.2
20260505204552 21 270 3.2 12.9 0.00 0.71 0.00 38 1012.3
20260505204537 20 263 1.6 12.9 0.00 0.71 0.00 43 1012.3
20260505203642 20 268 0.0 0.0 0.00 0.71 0.00 42 1012.4
20260505202551 19 268 0.0 0.0 0.00 0.71 0.00 46 1012.4
20260505202050 19 269 0.0 1.6 0.00 0.71 0.00 47 1012.5
20260505201545 20 269 1.6 6.4 0.00 0.71 0.00 45 1012.5
20260505201040 19 269 3.2 11.3 0.00 0.71 0.00 47 1012.5
20260505200533 20 269 4.8 11.3 0.00 0.71 0.00 48 1012.6
20260505200026 20 276 3.2 11.3 0.00 0.71 0.00 47 1012.6
20260505195521 19 281 1.6 11.3 0.00 0.71 0.00 49 1012.7
20260505195014 19 144 1.6 8.0 0.00 0.71 0.00 45 1012.9
20260505194508 18 144 3.2 8.0 0.00 0.71 0.00 49 1012.7
20260505194002 18 144 3.2 8.0 0.00 0.71 0.00 51 1012.9
20260505193721 19 144 4.8 9.7 0.00 0.71 0.00 50 1012.9
20260505192950 19 157 6.4 14.5 0.00 0.71 0.00 51 1012.9
20260505192445 18 229 4.8 14.5 0.00 0.71 0.00 51 1012.9
20260505191939 18 148 3.2 8.0 0.00 0.71 0.00 53 1012.9
20260505191432 17 150 1.6 8.0 0.00 0.71 0.00 53 1013.0
20260505190926 17 152 1.6 8.0 0.00 0.71 0.00 55 1012.9
20260505190644 17 196 1.6 6.4 0.00 0.71 0.00 54 1013.0
20260505185916 17 201 1.6 9.7 0.00 0.71 0.00 55 1012.9
20260505185633 17 201 1.6 9.7 0.00 0.71 0.00 55 1012.9
20260505184904 17 210 3.2 6.4 0.00 0.71 0.00 54 1013.0
20260505184357 17 211 4.8 11.3 0.00 0.71 0.00 56 1013.0
20260505183857 17 221 4.8 11.3 0.00 0.71 0.00 56 1012.9
20260505183357 17 161 3.2 9.7 0.00 0.71 0.00 56 1013.0
20260505182857 17 161 1.6 9.7 0.00 0.71 0.00 57 1013.1
20260505182621 16 159 1.6 8.0 0.00 0.71 0.00 60 1013.1
20260505181855 15 159 1.6 8.0 0.00 0.71 0.00 60 1013.1
20260505181354 15 161 1.6 6.4 0.00 0.71 0.00 60 1013.1
20260505180854 15 161 1.6 9.7 0.00 0.71 0.00 63 1013.1
20260505180354 15 159 3.2 9.7 0.00 0.71 0.00 63 1013.0
20260505175855 15 246 3.2 9.7 0.00 0.71 0.00 63 1013.0
20260505175353 15 273 3.2 9.7 0.00 0.71 0.00 62 1012.9
20260505174852 15 273 3.2 9.7 0.00 0.71 0.00 63 1013.0
20260505174611 15 269 1.6 9.7 0.00 0.71 0.00 63 1012.9
20260505174116 15 269 1.6 6.4 0.00 0.71 0.00 63 1012.9
20260505173351 15 268 1.6 6.4 0.00 0.71 0.00 63 1012.7
20260505172849 15 269 1.6 4.8 0.00 0.71 0.00 64 1012.6
20260505172348 14 268 1.6 4.8 0.00 0.71 0.00 66 1012.6
20260505171844 14 268 0.0 4.8 0.00 0.71 0.00 66 1012.6
20260505171344 13 268 1.6 6.4 0.00 0.71 0.00 67 1012.6
20260505171058 13 268 1.6 6.4 0.00 0.71 0.00 68 1012.6
20260505170332 13 269 1.6 6.4 0.00 0.71 0.00 70 1012.6
20260505165826 13 270 0.0 3.2 0.00 0.71 0.00 70 1012.6
20260505165320 12 270 1.6 3.2 0.00 0.71 0.00 70 1012.5
20260505164815 12 270 0.0 3.2 0.00 0.71 0.00 70 1012.6
20260505164309 12 270 0.0 0.0 0.00 0.71 0.00 72 1012.6
20260505163804 12 270 0.0 1.6 0.00 0.71 0.00 72 1012.6
20260505163256 12 270 0.0 3.2 0.00 0.71 0.00 73 1012.6
20260505162750 12 270 1.6 4.8 0.00 0.71 0.00 74 1012.5
20260505162245 11 270 1.6 4.8 0.00 0.71 0.00 74 1012.5
20260505161738 11 270 0.0 3.2 0.00 0.71 0.00 74 1012.5
20260505161453 11 270 0.0 3.2 0.00 0.71 0.00 75 1012.4
20260505160728 11 270 0.0 3.2 0.00 0.71 0.00 76 1012.4
20260505160221 11 270 0.0 3.2 0.00 0.71 0.00 76 1012.4
20260505153204 10 270 1.6 6.4 0.00 0.71 0.00 78 1012.2
20260505152706 10 270 0.0 4.8 0.00 0.71 0.00 78 1012.1
20260505152205 10 270 1.6 6.4 0.00 0.71 0.00 78 1011.9
20260505151705 10 270 3.2 6.4 0.00 0.71 0.00 79 1011.9
20260505151205 10 284 3.2 4.8 0.00 0.71 0.00 79 1011.8
20260505150703 10 284 3.2 9.7 0.00 0.71 0.00 80 1011.9
20260505150201 10 284 3.2 9.7 0.00 0.71 0.00 80 1011.9
20260505140638 9 284 0.0 0.0 0.00 0.71 0.00 83 1011.5
20260505140131 9 284 0.0 0.0 0.00 0.71 0.00 83 1011.4
20260505124610 8 284 0.0 0.0 0.00 0.71 0.00 83 1010.7
20260505124112 8 284 0.0 0.0 0.00 0.71 0.00 83 1010.7
20260505123611 8 284 0.0 0.0 0.00 0.71 0.00 83 1010.7
20260505123109 8 284 0.0 1.6 0.00 0.71 0.00 83 1010.7
20260505122608 8 284 0.0 3.2 0.00 0.71 0.00 83 1010.7
20260505122107 8 284 0.0 3.2 0.00 0.71 0.00 83 1010.7
20260505121600 8 284 0.0 0.0 0.00 0.71 0.00 83 1010.7
20260505121055 8 284 0.0 0.0 0.00 0.71 0.00 83 1010.7
20260505120549 8 284 0.0 0.0 0.00 0.71 0.00 83 1010.7
20260505120525 8 284 0.0 0.0 0.00 0.71 0.00 83 1010.7
20260505115537 8 284 0.0 0.0 0.00 0.71 0.00 83 1010.6
20260505115031 8 284 0.0 0.0 0.00 0.71 0.00 83 1010.6
20260505114525 8 284 0.0 0.0 0.00 0.71 0.00 83 1010.7
20260505114019 8 284 0.0 0.0 0.00 0.71 0.00 83 1010.7
20260505113512 8 284 0.0 1.6 0.00 0.71 0.00 83 1010.6
20260505113008 8 284 0.0 3.2 0.00 0.71 0.00 83 1010.6
20260505112502 8 284 0.0 3.2 0.00 0.71 0.00 83 1010.6
20260505111956 8 284 0.0 1.6 0.00 0.71 0.00 83 1010.6
20260505111455 8 284 0.0 4.8 0.00 0.71 0.00 83 1010.6
20260505110953 8 284 0.0 4.8 0.00 0.71 0.00 83 1010.7
20260505110709 8 284 0.0 0.0 0.00 0.71 0.00 83 1010.6
20260505101943 8 284 0.0 1.6 0.00 0.71 0.00 83 1010.9
20260505101444 8 284 0.0 1.6 0.00 0.71 0.00 83 1010.9
20260505101201 8 284 0.0 1.6 0.00 0.71 0.00 83 1010.9
20260505100439 8 284 0.0 3.2 0.00 0.71 0.00 83 1010.9
20260505095938 8 284 0.0 3.2 0.00 0.71 0.00 83 1010.8
20260505095439 8 284 0.0 1.6 0.00 0.71 0.00 83 1010.9
20260505094937 8 284 0.0 1.6 0.00 0.71 0.00 84 1010.9
20260505094655 8 284 0.0 1.6 0.00 0.71 0.00 84 1011.0
20260505094153 8 284 0.0 1.6 0.00 0.71 0.00 83 1010.9
20260505093429 8 284 0.0 1.6 0.00 0.71 0.00 83 1011.0
20260505092922 8 284 0.0 1.6 0.00 0.71 0.00 83 1011.0
20260505092416 8 284 0.0 3.2 0.00 0.71 0.00 83 1010.9
20260505092402 8 284 0.0 4.8 0.00 0.71 0.00 83 1011.0
20260505091405 8 284 1.6 4.8 0.00 0.71 0.00 83 1011.0
20260505090859 8 284 1.6 4.8 0.00 0.71 0.00 83 1010.9
20260505090352 8 284 1.6 4.8 0.00 0.71 0.00 83 1011.0
20260505085846 8 284 1.6 6.4 0.00 0.71 0.00 83 1011.0
20260505085426 8 284 1.6 6.4 0.00 0.71 0.00 84 1011.1
20260505084329 8 284 0.0 1.6 0.00 0.71 0.00 83 1011.3
20260505083823 8 284 0.0 4.8 0.00 0.71 0.00 83 1011.1
20260505083317 8 284 1.6 6.4 0.00 0.71 0.00 83 1011.3
20260505082813 8 285 0.0 6.4 0.00 0.71 0.00 83 1011.3
20260505082309 8 285 0.0 3.2 0.00 0.71 0.00 83 1011.4
20260505081808 8 285 0.0 3.2 0.00 0.71 0.00 83 1011.5
20260505081308 8 285 0.0 3.2 0.00 0.71 0.00 83 1011.4
20260505081028 8 285 0.0 1.6 0.00 0.71 0.00 83 1011.5
20260505080309 8 285 0.0 4.8 0.00 0.71 0.00 84 1011.4
20260505075809 8 285 0.0 4.8 0.00 0.71 0.00 84 1011.5
20260505075306 8 285 0.0 3.2 0.00 0.71 0.00 84 1011.5
20260505074805 8 285 0.0 3.2 0.00 0.71 0.00 84 1011.6
20260505074528 8 285 0.0 1.6 0.00 0.71 0.00 84 1011.6
20260505074032 8 285 0.0 4.8 0.00 0.71 0.00 84 1011.5
20260505073302 8 285 0.0 4.8 0.00 0.71 0.00 85 1011.7
20260505072803 8 285 1.6 3.2 0.00 0.71 0.00 85 1011.1
20260505072305 8 285 0.0 3.2 0.00 0.71 0.00 85 1011.6
20260505072300 8 285 0.0 3.2 0.00 0.71 0.00 85 1011.6
20260505071303 8 285 1.6 4.8 0.00 0.71 0.00 84 1011.6
20260505071020 8 285 0.0 4.8 0.00 0.71 0.00 85 1011.6
20260505070301 8 285 0.0 3.2 0.00 0.71 0.00 85 1011.5
20260505065801 8 285 0.0 1.6 0.00 0.71 0.71 85 1011.4
20260505065255 8 285 0.0 0.0 0.00 0.71 0.71 84 1011.4
20260505064750 8 285 0.0 0.0 0.00 0.71 0.71 84 1011.3
20260505064505 8 285 1.6 9.7 0.00 0.71 0.71 84 1011.3
20260505063737 8 285 3.2 9.7 0.00 0.71 0.71 84 1011.3
20260505063231 8 285 1.6 4.8 0.00 0.71 0.71 84 1011.1
20260505062725 8 285 1.6 4.8 0.00 0.71 0.71 84 1010.9
20260505062219 8 285 1.6 11.3 0.00 0.71 0.71 85 1010.7
20260505061713 8 285 1.6 11.3 0.00 0.71 0.71 85 1010.8
20260505061206 8 289 0.0 4.8 0.00 0.71 0.71 85 1010.8
20260505060701 8 289 1.6 12.9 0.00 0.71 0.71 85 1010.9
20260505060155 8 289 4.8 12.9 0.00 0.71 0.71 85 1011.1
20260505055648 8 289 3.2 12.9 0.00 0.71 0.71 85 1011.0
20260505055142 8 291 3.2 8.0 0.00 0.71 0.71 86 1010.9
20260505055116 8 291 1.6 8.0 0.00 0.71 0.71 86 1011.0
20260505054356 8 291 1.6 8.0 0.00 0.71 0.71 86 1011.0
20260505053624 8 292 1.6 6.4 0.00 0.71 0.71 86 1011.1
20260505053118 8 292 3.2 6.4 0.00 0.71 0.71 87 1011.1
20260505052619 8 292 1.6 6.4 0.00 0.71 0.71 87 1011.3
20260505052117 8 292 0.0 3.2 0.00 0.71 0.71 86 1011.3
20260505051615 8 292 0.0 3.2 0.00 0.71 0.71 87 1011.1
20260505051113 8 292 1.6 11.3 0.00 0.71 0.71 87 1011.3
20260505050611 8 292 4.8 12.9 0.00 0.71 0.71 87 1011.4
20260505050111 8 299 6.4 14.5 0.00 0.71 0.71 87 1011.5
20260505041607 8 195 0.0 3.2 0.00 0.71 0.71 87 1011.0
20260505041326 8 195 0.0 3.2 0.00 0.71 0.71 87 1010.9
20260505040607 8 195 0.0 4.8 0.00 0.71 0.71 87 1010.8
20260505040105 8 195 0.0 4.8 0.03 0.71 0.71 86 1010.8
20260505035603 8 195 0.0 4.8 0.08 0.71 0.71 86 1010.7
20260505035315 8 195 0.0 3.2 0.08 0.71 0.71 86 1010.9
20260505034551 8 195 0.0 1.6 0.10 0.71 0.71 86 1010.9
20260505034045 8 195 0.0 1.6 0.15 0.71 0.71 86 1010.8
20260505033540 8 195 0.0 4.8 0.18 0.71 0.71 86 1010.8
20260505033034 8 195 0.0 4.8 0.18 0.71 0.71 85 1010.7
20260505032609 8 196 1.6 8.0 0.18 0.71 0.71 85 1010.7
20260505031514 8 194 1.6 8.0 0.18 0.71 0.71 86 1010.3
20260505031230 8 194 3.2 8.0 0.18 0.71 0.71 86 1010.0
20260505030502 9 205 3.2 6.4 0.18 0.71 0.71 87 1010.1
20260505025956 9 231 1.6 6.4 0.13 0.66 0.66 87 1010.3
20260505025451 9 250 0.0 4.8 0.10 0.64 0.64 86 1010.5
20260505024944 9 252 1.6 4.8 0.10 0.64 0.64 86 1010.8
20260505024704 9 252 1.6 8.0 0.08 0.61 0.61 86 1010.2
20260505023932 9 252 0.0 8.0 0.03 0.56 0.56 85 1009.9
20260505023427 9 254 0.0 3.2 0.00 0.53 0.53 85 1011.0
20260505022921 10 224 0.0 4.8 0.00 0.53 0.53 86 1011.3
20260505022637 10 224 3.2 14.5 0.03 0.53 0.53 86 1010.8
20260505021908 9 223 4.8 14.5 0.05 0.53 0.53 85 1010.5
20260505021403 10 224 1.6 12.9 0.10 0.53 0.53 85 1010.2
20260505020856 10 250 1.6 6.4 0.15 0.53 0.53 87 1010.1
20260505020351 10 251 1.6 11.3 0.18 0.53 0.53 87 1010.1
20260505015845 10 251 3.2 11.3 0.20 0.53 0.53 87 1010.2
20260505015343 10 255 4.8 14.5 0.20 0.53 0.53 88 1010.2
20260505014842 10 262 6.4 17.7 0.23 0.53 0.53 87 1010.2
20260505014342 10 225 6.4 17.7 0.23 0.53 0.53 87 1010.2
20260505013843 10 233 4.8 16.1 0.23 0.53 0.53 87 1010.0
20260505013343 10 220 3.2 16.1 0.36 0.53 0.53 86 1010.0
20260505012843 10 190 3.2 12.9 0.48 0.53 0.53 85 1010.3
20260505012343 10 151 3.2 12.9 0.48 0.51 0.51 84 1010.8
20260505011842 10 151 3.2 12.9 0.48 0.48 0.48 83 1011.0
20260505011341 10 147 1.6 11.3 0.43 0.43 0.43 83 1011.5
20260505010841 10 147 3.2 9.7 0.38 0.38 0.41 83 1011.5
20260505010558 10 147 3.2 11.3 0.36 0.36 0.36 82 1011.1
20260505005841 11 158 1.6 11.3 0.33 0.33 0.33 82 1010.6
20260505005600 11 171 1.6 9.7 0.33 0.33 0.33 82 1010.3
20260505005103 11 163 3.2 19.3 0.30 0.30 0.33 80 1010.3
20260505004341 11 157 6.4 19.3 0.30 0.30 0.30 77 1010.2
20260505003843 12 140 4.8 17.7 0.30 0.30 0.30 72 1010.0
20260505003342 13 169 3.2 11.3 0.18 0.18 0.18 71 1009.9
20260505002835 13 226 4.8 12.9 0.05 0.05 0.05 68 1010.5
20260505002329 13 234 6.4 14.5 0.03 0.03 0.03 65 1009.9
20260505001824 14 145 9.7 27.4 0.00 0.00 0.00 62 1009.3
20260505001318 15 144 8.0 27.4 0.00 0.00 0.00 56 1008.7
20260505000812 15 156 6.4 22.5 0.00 0.00 0.00 50 1009.0
20260505000306 16 237 9.7 25.7 0.00 0.00 0.00 49 1008.7
20260504235800 16 202 8.0 25.7 0.00 0.00 0.00 47 1008.6
20260504235515 16 233 8.0 22.5 0.00 0.00 0.00 47 1008.6
20260504234748 17 241 8.0 22.5 0.00 0.00 0.00 46 1008.6
20260504234242 17 220 6.4 19.3 0.00 0.00 0.00 47 1008.5
20260504233953 17 182 6.4 17.7 0.00 0.00 0.00 47 1008.6
20260504233229 17 238 6.4 22.5 0.00 0.00 0.00 47 1008.6
20260504232945 17 167 9.7 22.5 0.00 0.00 0.00 45 1008.6
20260504232217 18 212 14.5 29.0 0.00 0.00 0.00 44 1008.5
20260504231935 18 221 12.9 29.0 0.00 0.00 0.00 45 1008.5
20260504231424 18 234 11.3 24.1 0.00 0.00 0.00 47 1008.6